Hourly Data Report for January 31, 2004

TORONTO CITY
ONTARIO

43°40'00.000" N
79°24'00.000" W
112.50 m
6158355
71508
XTO

Download Data

Hourly Data (January 2004)
Hourly Data Report for January 31, 2004
TIME
LST
Temp Definition
°C
Dew Point Definition
°C
Rel Hum Definition
%
Precip. Amount Definition
mm

Wind Dir Definition
10's deg

Wind Spd Definition
km/h
Visibility Definition
km
Stn Press Definition
kPa
Hmdx Definition


Wind Chill Definition


Weather Definition


00:00 -11.3 -15.3 72   LegendMM LegendMM LegendMM 99.31     LegendNANA
01:00 -11.4 -15.9 69   LegendMM LegendMM LegendMM 99.37     LegendNANA
02:00 -11.2 -15.0 73   LegendMM LegendMM LegendMM 99.44     LegendNANA
03:00 -11.4 -15.4 72   LegendMM LegendMM LegendMM 99.53     LegendNANA
04:00 -11.8 -15.7 73   LegendMM LegendMM LegendMM 99.62     LegendNANA
05:00 -12.2 -16.4 71   LegendMM LegendMM LegendMM 99.70     LegendNANA
06:00 -12.2 -16.3 71   LegendMM LegendMM LegendMM 99.77     LegendNANA
07:00 -12.2 -16.1 73   LegendMM LegendMM LegendMM 99.83     LegendNANA
08:00 -12.2 -15.8 74   LegendMM LegendMM LegendMM 99.92     LegendNANA
09:00 -10.2 -14.3 72   LegendMM LegendMM LegendMM 100.00     LegendNANA
10:00 -8.5 -12.9 70   LegendMM LegendMM LegendMM 100.08     LegendNANA
11:00 -7.6 -12.2 70   LegendMM LegendMM LegendMM 100.15     LegendNANA
12:00 -6.6 -11.6 68   LegendMM LegendMM LegendMM 100.15     LegendNANA
13:00 -5.7 -10.7 68   LegendMM LegendMM LegendMM 100.14     LegendNANA
14:00
15:00 -4.8 -10.3 65   LegendMM LegendMM LegendMM 100.23     LegendNANA
16:00 -4.5 -10.0 65   LegendMM LegendMM LegendMM 100.34     LegendNANA
17:00 -5.6 -10.7 67   LegendMM LegendMM LegendMM 100.46     LegendNANA
18:00 -6.6 -10.9 71   LegendMM LegendMM LegendMM 100.62     LegendNANA
19:00 -7.0 -10.8 74   LegendMM LegendMM LegendMM 100.77     LegendNANA
20:00 -7.1 -10.9 74   LegendMM LegendMM LegendMM 100.88     LegendNANA
21:00 -6.9 -10.3 77   LegendMM LegendMM LegendMM 100.94     LegendNANA
22:00 -6.6 -9.9 77   LegendMM LegendMM LegendMM 101.02     LegendNANA
23:00 -6.8 -10.1 77   LegendMM LegendMM LegendMM 101.06     LegendNANA

Notes on Data Quality.

Legend

  • E = Estimated
  • M = Missing
  • NA = Not Available*
  • [empty] = Indicates an unobserved value
Date modified: